loading
|
Showing default

ERS 15, 2412

Orbit data source: Space-Track

ERS 15, 2412 is a payload satellite owned by USAF SSD (US) that was launched on Fri, 19 Aug 1966 UTC via an ATLAS SLV-3 AGENA D launch vehicle from the Air Force Western Test Range (AFWTR). Payloads include a variety of satellites, spacecraft, and rockets equipped with specific instruments for various scientific and technological missions. These include communications satellites like Starlink; space stations such as the ISS; scientific satellites like the Hubble; Earth observation satellites from companies like Planet Labs, Umbra, and HawkEye 360; GPS; miniature CubeSats for education and research; and military/defense satellites.

Loading next visibility...
Loading greatness...
ERS 15 details
Identifier
2412, 1966-077C
Orbit
Active
Last TLE update19 hours ago
Origin
Flag of USUSAF SSD (US)
ManufacturerTRW
MissionDefense Technology
Bus & MotorORS, Unknown motor
Mass5 kg wet, 5 kg dry
Launch date (UTC)
1966-08-19 (58 years ago)
Launch vehicle
ATLAS SLV-3 AGENA D
Launch site
Air Force Western Test Range (AFWTR)
Object type
Payload
Rocket body
Debris
Shape & HBROct Cyl, 0.2 m
Radar Cross Section0.045 m², Medium (>0.1 m² and < 1m²)

Expand to show TLE details & history

TLE from 19 hours ago
0 ERS 15
1 02412U 66077C   24280.91043846  .00000002  00000-0  00000-0 0  9998
2 02412  90.3228 270.0195 0008212 333.6895  26.3538  8.59077477337362
Epoch: 2024-10-06T21:51Z
Definitive object data (Epoch: 2024-10-06T21:51:01.882Z)
Latitude-0.00007°
Longitude-73.78396°
Altitude3,687.044 km
Speed6.296 km/s
True Right ascension18h 00m 04s
True Declination0° 00' 00"
Sunlit
Object was in daylight at TLE epoch
Predictive object data (real-time)
Latitude-21.56328°
Longitude-73.64773°
Altitude3,691.545 km
Speed6.294 km/s
Apparent Right ascension19h 41m 58s
Apparent Declination-34° 30' 44"
Sunlit
Object is in daylight
Predictive observer data (real-time)
Local Sidereal Time11:21:40
Azimuth100.969° ESE
Elevation-46.615°
Doppler factor1
Orbital elements
Apogee3,698.356 km
Perigee3,681.82 km
Semi-major axis10,068.225 km
Eccentricity0.0008212
Inclination90.3228°
RAAN270.0195°
Arg. of periapsis333.6895°
True anomaly26.39561°
Mean anomaly26.3538°
Eccentric anomaly26.3747°
Mean motion2.14839 °/min
BSTARUnknown
Period167.57 mins
No data available

ERS 15 Visibility forecast

Observer location: 39.9160978°, -105.1181434

ERS 15 is not visible in the next 10 days
Span
Click to sort rows by Start time (UTC) header in descending order
Start Az.
Max El. time (UTC)
Max El. Az.
Max El.
End time (UTC)
End Az.